Probability
0 0 0 1 2 3 3 3 3 4 4 4 2 1 0 0 0 0 0 0 0 0 0 0 1 1 1 1 1 0 0 0 0 0 0 0 0 0 0 0 0 0 0
0 0 0 0 1 2 3 3 3 3 3 3 2 1 0 0 0 0 0 0 0 0 0 0 0 1 1 1 1 1 0 0 0 1 1 0 0 0 0 0 0 0 0
0 0 0 0 0 1 2 2 2 2 2 1 1 0 0 0 0 0 0 0 0 0 0 0 0 0 0 0 1 1 0 0 1 2 2 1 1 0 0 0 0 0 0
1 0 0 0 0 0 1 1 1 1 0 0 0 0 0 0 0 0 0 0 0 0 0 0 0 0 0 0 0 0 0 0 1 2 3 3 2 1 0 0 0 0 0
2 1 1 1 0 0 0 1 1 1 0 0 0 0 0 0 0 0 0 0 0 0 0 0 0 0 0 0 0 0 0 0 0 1 2 3 2 1 0 0 0 0 0
2 1 1 2 1 0 0 1 2 1 0 0 0 0 0 0 0 0 0 0 0 0 0 0 0 0 0 0 0 0 0 0 0 0 1 1 2 2 1 0 0 0 0
3 2 2 3 2 1 0 1 2 2 1 0 1 1 0 0 0 0 0 0 0 0 0 0 0 0 0 0 0 0 0 0 0 0 0 1 2 3 2 1 0 0 0
4 3 3 3 2 1 1 2 3 2 1 0 1 1 0 0 0 0 0 0 0 0 0 0 0 0 0 0 0 1 1 0 0 0 0 1 2 2 2 1 0 0 0
5 5 4 3 2 2 2 3 3 3 1 0 1 1 0 0 0 0 0 0 0 0 0 0 0 0 0 0 0 1 1 0 0 0 0 1 1 0 1 1 0 0 0
5 4 3 2 3 3 3 3 3 2 1 0 0 0 0 0 0 0 0 0 0 0 0 0 0 0 0 0 0 0 0 0 0 0 0 0 0 0 0 0 0 0 0
4 2 1 2 3 4 3 3 3 1 1 0 0 0 0 0 0 0 0 0 0 0 0 0 0 0 0 0 0 0 0 0 0 0 0 0 0 0 0 0 0 0 0
2 1 0 1 2 3 3 3 2 1 0 0 0 0 0 0 0 0 0 0 0 0 0 0 0 0 0 0 0 0 0 0 0 0 0 0 0 0 0 0 0 0 0
2 1 0 0 1 2 3 2 1 0 0 0 0 0 0 0 0 0 0 0 0 0 0 0 0 0 0 0 0 0 0 0 0 0 0 0 0 0 0 0 0 0 0
3 2 2 1 0 1 2 1 0 0 0 0 0 0 0 0 0 0 0 0 0 0 0 0 0 0 0 0 0 0 0 0 0 0 0 0 0 0 0 0 0 0 0
3 3 2 1 1 1 1 0 0 0 0 0 0 0 0 0 0 0 0 0 0 0 0 0 0 0 0 0 0 0 0 0 0 0 0 0 0 0 0 0 0 0 0
3 3 1 1 1 1 1 0 0 0 0 0 0 0 0 0 0 0 1 1 2 1 1 0 0 0 0 0 0 0 0 0 0 0 0 0 0 0 0 0 0 0 0
2 2 1 0 0 0 0 0 0 0 0 0 0 0 0 0 0 1 3 4 5 4 3 1 1 0 0 0 0 0 0 0 0 0 0 0 0 0 0 0 0 0 0
1 1 1 1 0 0 1 1 1 0 0 0 0 0 0 0 1 2 4 5 6 6 5 4 3 2 1 1 1 1 1 1 1 1 0 0 0 0 0 0 0 0 0
1 1 2 2 1 1 1 2 2 1 0 0 0 0 0 0 1 3 3 4 4 4 5 5 5 4 4 3 3 3 2 2 2 2 1 1 0 0 0 0 0 0 0
4 4 3 3 3 2 2 3 2 1 0 0 0 1 1 1 2 3 3 3 3 3 4 4 4 4 4 4 4 3 3 3 3 3 3 2 1 1 1 0 0 0 0
6 6 5 5 5 3 3 2 1 0 0 1 1 2 2 3 3 3 3 3 3 4 4 4 3 3 3 3 3 3 3 3 3 3 3 3 3 2 2 1 1 0 0
5 6 6 6 6 5 3 1 1 1 2 2 3 3 3 4 4 4 3 3 3 4 4 5 4 4 4 4 3 3 3 3 3 3 3 3 3 3 3 3 2 1 0
5 5 6 7 7 5 3 1 1 3 5 5 4 4 4 4 5 6 5 3 3 3 4 5 5 5 6 5 4 3 3 3 3 3 3 3 3 3 3 3 2 1 0
6 7 7 8 8 6 3 1 1 5 8 8 7 6 5 4 5 6 6 4 4 3 3 3 4 4 5 5 4 3 3 3 3 3 3 3 3 3 3 3 2 1 0
9 9 9 9 8 7 4 1 1 5 9 10 8 6 4 3 3 4 4 4 4 3 2 1 1 1 2 2 2 2 2 2 2 2 3 3 3 3 3 2 1 0 0
11 11 10 8 7 6 4 1 2 6 9 10 8 4 2 3 3 2 3 3 3 3 2 1 0 0 0 0 0 1 1 1 1 1 2 3 3 3 2 1 0 0 0
Wind_Speed
2 2 1 1 1 1 2 2 2 2 2 3 3 3 2 2 2 1 1 3 4 4 5 5 5 5 5 6 6 6 6 6 7 7 7 7 7 6 6 6 5 5 5
2 2 2 1 1 1 2 2 2 2 2 2 3 3 3 2 2 2 1 1 3 4 4 3 4 4 5 5 5 5 6 6 6 6 6 6 6 6 6 6 6 5 5
2 2 2 1 1 1 2 2 3 2 2 3 3 3 2 2 2 2 2 1 1 2 2 2 2 3 4 5 5 5 5 5 5 6 6 6 6 6 6 6 6 5 5
2 2 2 1 1 2 2 2 2 3 3 3 2 2 2 2 2 2 2 2 1 1 1 1 0 1 2 3 5 4 4 4 4 5 6 6 6 5 5 5 5 5 5
2 3 2 2 2 2 2 2 3 3 3 3 3 3 2 2 2 2 3 2 2 2 1 2 2 2 1 1 3 3 3 3 3 4 4 5 5 4 4 5 5 5 5
2 3 2 2 2 2 2 2 3 3 3 3 4 3 3 3 2 2 2 2 2 2 2 2 2 2 3 2 1 0 1 2 1 2 3 4 5 4 4 4 5 5 5
2 2 2 2 2 2 2 3 3 4 3 3 3 3 3 3 3 2 2 2 2 2 2 2 1 1 1 3 2 1 0 1 1 2 3 4 4 4 4 4 4 4 4
2 2 2 2 2 2 3 3 3 3 2 1 2 2 1 2 2 2 2 1 2 1 1 1 1 1 1 1 2 2 0 0 1 1 2 3 3 3 3 4 4 4 4
1 2 2 2 2 3 3 3 3 4 2 1 1 2 2 1 0 2 2 1 1 1 1 1 1 1 1 1 2 2 1 2 2 1 1 2 3 3 4 4 4 4 4
1 2 2 2 2 2 3 3 3 2 3 2 1 1 1 2 2 0 1 1 1 0 0 0 0 1 1 1 1 2 2 2 2 2 2 1 1 2 3 4 4 4 3
1 1 2 2 2 2 3 3 3 2 2 2 2 1 2 1 1 2 1 1 1 0 0 0 0 0 1 1 1 1 2 2 3 3 2 2 1 0 1 1 2 2 3
1 0 1 1 2 2 3 3 3 3 3 3 2 2 2 2 2 2 2 1 1 1 1 0 0 0 1 1 1 1 2 3 3 4 4 3 3 2 1 0 1 1 1
1 1 1 1 1 2 2 2 3 3 3 3 3 2 2 2 2 3 2 1 1 0 1 0 0 0 0 0 1 2 2 3 3 4 4 4 4 3 3 2 2 2 2
2 1 1 1 1 2 2 2 2 2 2 2 2 2 2 2 2 3 3 3 1 0 0 1 0 0 0 0 1 2 2 3 4 4 4 4 4 4 4 4 3 3 4
2 2 2 2 1 1 2 2 2 2 2 2 2 2 1 1 2 2 3 3 3 2 2 1 1 0 0 0 1 1 1 2 3 3 4 4 4 4 4 5 5 5 5
2 2 2 2 1 1 2 2 1 1 2 1 1 1 1 1 1 2 3 2 2 2 2 1 1 0 0 0 1 1 0 2 2 3 3 3 3 4 4 5 5 5 5
2 2 2 2 2 1 2 2 2 2 2 1 1 1 1 1 1 2 2 2 2 2 2 1 0 0 1 1 1 0 0 1 1 2 2 2 3 3 4 4 4 4 4
2 2 2 2 2 2 2 2 2 2 2 2 1 2 1 1 2 2 2 2 2 2 2 1 1 1 1 1 1 1 0 0 1 0 1 1 2 2 3 3 3 3 3
3 2 2 2 2 2 2 2 2 2 2 2 2 2 2 2 2 2 2 2 1 1 1 2 1 0 0 1 1 0 0 1 1 1 2 1 1 1 2 2 2 2 1
3 3 3 2 2 2 2 2 2 2 2 2 2 2 2 3 3 3 2 2 2 2 2 2 1 1 0 0 1 1 1 1 1 1 1 1 2 2 2 2 2 2 2
4 3 3 2 2 2 2 3 3 3 2 2 1 1 2 2 3 3 3 3 3 3 2 2 1 1 1 1 2 1 1 1 2 1 1 1 1 1 2 3 4 4 3
3 3 3 3 2 2 2 4 4 3 2 2 1 1 1 2 3 4 4 5 5 5 4 3 2 2 3 3 2 2 2 1 2 1 2 2 2 3 3 3 4 5 5
2 2 2 2 2 2 3 4 4 3 2 2 2 1 1 1 2 2 2 3 4 5 6 5 4 4 4 4 4 3 3 4 3 2 2 3 2 4 3 4 6 6 6
2 2 2 2 2 2 3 3 4 3 2 2 2 2 2 1 1 2 2 2 2 3 4 4 5 5 4 4 5 4 4 3 2 2 3 3 2 3 3 3 6 7 7
2 2 2 2 2 1 2 3 4 2 2 2 2 2 2 2 2 3 2 2 2 2 3 4 4 4 4 4 4 2 2 2 2 2 3 3 2 2 2 3 4 6 7
3 2 1 1 2 2 2 3 4 2 2 1 1 1 2 2 2 3 3 3 3 3 2 2 2 2 2 3 5 5 4 3 2 3 3 3 2 2 3 3 3 3 4
Wind_Direction
117 108 104 99 100 104 106 102 99 100 98 103 109 110 115 122 135 139 143 156 162 166 166 169 165 169 177 179 182 186 190 188 186 191 197 201 202 200 204 204 208 205 207
118 114 99 87 90 105 106 107 106 99 95 97 93 96 102 109 110 118 122 140 142 147 155 165 174 179 181 186 188 192 195 195 192 190 193 196 196 197 204 208 210 209 207
131 123 108 98 89 96 96 94 94 90 93 93 90 89 93 93 97 99 98 89 109 147 164 176 192 196 202 199 195 199 198 199 196 198 196 197 200 204 207 211 214 215 214
131 120 115 105 94 94 101 109 106 96 92 95 89 75 76 84 93 91 91 86 74 60 70 88 103 175 214 211 208 203 198 201 205 209 205 204 206 207 210 217 221 223 221
125 122 121 113 104 97 97 111 101 108 108 101 92 76 65 73 83 96 98 100 93 74 58 40 43 61 73 208 206 203 201 210 213 207 204 203 206 209 217 220 221 222 220
112 119 118 113 109 100 93 100 103 99 109 110 95 75 59 58 64 72 93 97 95 89 75 61 42 32 42 42 52 157 195 212 203 204 205 212 213 211 212 219 223 228 227
117 125 126 109 106 110 114 115 110 104 94 102 95 72 49 52 57 56 72 82 83 89 86 70 50 30 11 19 16 9 213 187 203 213 218 218 216 209 212 224 227 225 229
136 141 140 132 126 120 114 114 114 109 107 105 109 108 71 27 28 42 59 89 87 81 81 78 57 35 11 352 4 17 35 233 235 236 236 227 223 226 227 226 230 222 221
111 115 135 138 137 137 137 140 140 136 142 122 98 131 141 181 12 19 34 53 67 72 52 53 52 18 9 359 332 347 9 7 323 308 291 255 232 229 230 227 221 213 213
111 132 140 142 143 142 145 157 142 141 139 148 104 80 118 146 148 130 7 34 54 77 348 12 1 355 343 337 344 10 19 11 352 348 350 333 270 240 227 221 221 217 212
51 100 136 142 149 155 158 155 144 145 144 152 150 135 104 82 109 148 191 318 357 358 309 254 296 311 311 308 304 25 30 21 16 14 3 14 20 35 181 194 209 215 215
24 53 141 146 154 159 166 165 162 160 159 157 162 164 160 160 168 157 172 215 266 324 350 37 52 302 298 308 300 34 45 43 42 37 33 33 34 40 60 134 157 168 153
204 221 166 158 166 168 167 158 160 169 168 171 178 185 185 185 164 156 154 168 200 303 329 334 292 291 333 353 349 42 55 60 49 42 40 42 47 52 57 69 80 92 83
207 202 170 174 182 165 159 151 157 175 168 177 188 184 185 191 174 168 167 158 151 207 273 273 320 281 11 40 32 49 50 55 51 45 44 46 50 58 64 68 74 80 77
197 184 177 175 175 163 155 150 159 169 163 179 185 182 186 188 180 181 173 169 164 184 229 239 239 258 146 113 61 71 47 63 62 56 55 55 58 63 69 73 74 76 76
186 181 184 180 176 153 147 145 146 151 148 171 179 167 171 176 165 166 169 173 173 172 197 218 217 203 169 118 107 108 67 85 74 68 63 62 67 74 80 81 80 79 77
184 192 181 179 179 164 150 139 138 134 140 144 145 147 160 155 154 165 163 164 162 156 167 216 168 130 148 159 94 95 98 98 78 79 80 73 75 86 93 94 92 89 84
186 193 181 171 181 182 159 153 156 145 148 154 153 141 154 139 141 159 157 158 161 161 159 180 160 164 189 193 179 179 166 180 210 141 143 114 105 101 103 104 103 101 98
182 178 172 179 192 187 167 167 160 151 151 157 156 157 166 142 139 139 138 142 155 148 138 153 168 172 181 153 145 203 219 269 246 235 223 205 182 160 140 128 121 116 117
179 180 175 183 196 192 182 170 156 153 149 151 154 162 171 171 175 168 161 163 155 140 129 134 144 172 191 152 167 211 273 276 270 272 259 225 210 208 198 186 185 188 199
188 183 173 177 187 188 194 177 171 168 166 162 153 167 186 183 177 179 176 174 165 162 156 161 176 179 199 180 209 205 226 268 268 249 240 238 231 232 225 223 219 220 222
182 172 174 174 177 200 182 173 166 166 170 176 183 202 208 201 194 191 186 180 174 176 184 186 200 213 228 221 206 198 199 216 259 217 212 247 222 238 236 230 228 224 225
174 173 184 174 182 197 180 173 172 166 174 188 193 206 230 234 199 196 182 182 196 196 189 189 202 221 222 214 197 205 213 220 235 212 194 246 231 242 241 234 225 227 227
169 182 187 183 180 202 180 174 169 169 183 212 208 203 210 239 218 191 178 188 216 224 217 210 221 231 228 215 204 208 217 229 253 217 192 237 239 246 249 240 226 228 230
177 185 175 178 186 218 190 181 164 161 182 222 221 201 200 219 228 189 173 198 243 262 241 229 235 243 237 218 196 177 182 205 249 241 200 225 239 246 246 241 232 227 229
184 178 169 172 189 220 208 187 171 168 183 219 249 230 213 221 215 184 187 200 236 259 260 266 264 267 249 220 198 200 199 209 235 245 200 206 216 211 245 233 230 224 226